Fort Indiantown Gap, PA

3:18 AM EST on December 06, 2019 (GMT -0500)
Muir Army Air Field

Weather History for KMUI - October, 2019

Change the Weather History Date:

Wednesday, October 2, 2019

  Actual Average Record
Temperature  
Mean Temperature 75 °F -  
Max Temperature 91 °F 66 °F 91 °F (2019)
Min Temperature 60 °F 48 °F 35 °F (1997)
Cooling Degree Days 10    
Growing Degree Days 25 (Base 50)    
Moisture  
Dew Point 65 °F    
Average Humidity 87    
Maximum Humidity 100    
Minimum Humidity 43    
Precipitation  
Precipitation 0.00 in - - ()
Sea Level Pressure  
Sea Level Pressure 29.90 in    
Wind  
Wind Speed 2 mph (NNW)    
Max Wind Speed 17 mph    
Max Gust Speed 25 mph    
Visibility 5 miles    
Events Fog , Rain    
Averages and records for this station are not official NWS values.
T = Trace of Precipitation, MM = Missing Value Source: NWS Daily Summary

Daily Weather History Graph

Daily Weather History Graph

Search for Another Location

Airport or City:

Astronomy

Oct. 02, 2019 Rise Set
Actual Time 7:03 AM EDT 6:47 PM EDT
Civil Twilight 6:36 AM EDT 7:14 PM EDT
Nautical Twilight 6:04 AM EDT 7:45 PM EDT
Astronomical Twilight 5:32 AM EDT 8:17 PM EDT
Moon 11:27 AM EDT (10/2) 9:38 PM EDT (10/2)
Length of Visible Light 12h 38m
Length of Day
11h 43m
Waxing Crescent, 20% of the Moon is Illuminated
Oct 2
Waxing Crescent
Oct 5
First Quarter
Oct 13
Full
Oct 21
Last Quarter
Oct 27
New

Hourly Weather History & Observations

Time (EDT) Temp. Heat Index Dew Point Humidity Pressure Visibility Wind Dir Wind Speed Gust Speed Precip Events Conditions
12:20 AM 66.2 °F - 66.2 °F 100% 29.92 in 2.8 mi Calm Calm - N/A   Clear
12:33 AM 68.0 °F - 66.2 °F 94% 29.91 in 6.0 mi Calm Calm - N/A   Clear
12:56 AM 66.7 °F - 65.8 °F 97% 29.91 in 9.0 mi Calm Calm - N/A   Clear
1:20 AM 66.2 °F - 66.2 °F 100% 29.91 in 1.8 mi Calm Calm - N/A   Clear
1:24 AM 66.2 °F - 66.2 °F 100% 29.91 in 0.9 mi Calm Calm - N/A   Clear
1:26 AM 66.2 °F - 66.2 °F 100% 29.91 in 1.2 mi Calm Calm - N/A   Clear
1:42 AM 64.4 °F - 64.4 °F 100% 29.92 in 1.8 mi Calm Calm - N/A   Clear
1:50 AM 66.2 °F - 66.2 °F 100% 29.91 in 2.5 mi Calm Calm - N/A   Clear
1:56 AM 65.3 °F - 64.9 °F 99% 29.91 in 5.0 mi Calm Calm - N/A   Clear
2:20 AM 66.2 °F - 66.2 °F 100% 29.91 in 2.2 mi Calm Calm - N/A   Clear
2:24 AM 66.2 °F - 66.2 °F 100% 29.91 in 1.0 mi Calm Calm - N/A   Clear
2:32 AM 66.2 °F - 66.2 °F 100% 29.91 in 1.1 mi Calm Calm - N/A   Clear
2:40 AM 66.2 °F - 66.2 °F 100% 29.90 in 4.0 mi Calm Calm - N/A   Clear
2:56 AM 64.9 °F - 64.6 °F 99% 29.90 in 7.0 mi Calm Calm - N/A   Clear
3:04 AM 64.4 °F - 64.4 °F 100% 29.90 in 0.8 mi Calm Calm - N/A   Clear
3:16 AM 64.4 °F - 64.4 °F 100% 29.90 in 1.1 mi Calm Calm - N/A   Clear
3:52 AM 64.4 °F - 64.4 °F 100% 29.90 in 0.4 mi Calm Calm - N/A Fog Fog
3:56 AM 64.2 °F - 63.9 °F 99% 29.90 in 0.4 mi Calm Calm - N/A Fog Fog
4:28 AM 64.4 °F - 64.4 °F 100% 29.90 in 0.2 mi Calm Calm - N/A Fog Fog
4:56 AM 63.9 °F - 63.5 °F 99% 29.90 in 0.2 mi Calm Calm - N/A Fog Fog
5:56 AM 63.5 °F - 63.5 °F 100% 29.89 in 0.5 mi Calm Calm - N/A Fog Fog
6:04 AM 62.6 °F - 62.6 °F 100% 29.90 in 0.4 mi Calm Calm - N/A Fog Fog
6:30 AM 62.6 °F - 62.6 °F 100% 29.90 in 0.5 mi Calm Calm - N/A Fog Fog
6:38 AM 62.6 °F - 62.6 °F 100% 29.90 in 1.2 mi Calm Calm - N/A   Clear
6:46 AM 62.6 °F - 62.6 °F 100% 29.90 in 1.4 mi Calm Calm - N/A   Clear
6:48 AM 60.8 °F - 60.8 °F 100% 29.90 in 0.8 mi Calm Calm - N/A   Clear
6:56 AM 61.3 °F - 61.3 °F 100% 29.90 in 0.4 mi Calm Calm - N/A Fog Fog
6:57 AM 60.8 °F - 60.8 °F 100% 29.91 in 0.2 mi Calm Calm - N/A Fog Fog
7:13 AM 62.6 °F - 62.6 °F 100% 29.91 in 0.1 mi Calm Calm - N/A Fog Fog
7:45 AM 62.6 °F - 62.6 °F 100% 29.91 in 0.1 mi Calm Calm - N/A Fog Fog
7:56 AM 64.0 °F - 64.0 °F 100% 29.91 in 0.1 mi Calm Calm - N/A Fog Fog
8:04 AM 64.4 °F - 64.4 °F 100% 29.91 in - Calm Calm - N/A Fog Fog
8:39 AM 66.2 °F - 66.2 °F 100% 29.91 in 0.2 mi Calm Calm - N/A Fog Fog
8:57 AM 67.1 °F - 67.1 °F 100% 29.91 in 0.8 mi Calm Calm - N/A   Mostly Cloudy
9:09 AM 68.0 °F - 68.0 °F 100% 29.91 in 3.0 mi Calm Calm - N/A   Mostly Cloudy
9:56 AM 72.9 °F - 72.9 °F 100% 29.89 in 10.0 mi WSW 10.4 mph - N/A   Partly Cloudy
10:56 AM 84.2 °F 87.3 °F 67.8 °F 58% 29.88 in 10.0 mi SW 11.5 mph - N/A   Partly Cloudy
11:56 AM 86.4 °F 89.4 °F 67.6 °F 53% 29.87 in 10.0 mi SW 9.2 mph 18.4 mph N/A   Scattered Clouds
12:56 PM 87.1 °F 89.9 °F 66.7 °F 51% 29.86 in 10.0 mi WSW 12.7 mph - N/A   Mostly Cloudy
1:56 PM 89.8 °F 91.8 °F 64.9 °F 44% 29.84 in 10.0 mi WSW 17.3 mph 25.3 mph N/A   Mostly Cloudy
2:56 PM 90.7 °F 92.8 °F 65.1 °F 43% 29.82 in 10.0 mi WSW 12.7 mph 19.6 mph N/A   Mostly Cloudy
3:56 PM 89.1 °F 91.0 °F 64.9 °F 45% 29.81 in 10.0 mi WSW 9.2 mph 18.4 mph N/A   Mostly Cloudy
4:56 PM 89.1 °F 91.0 °F 64.9 °F 45% 29.81 in 10.0 mi WSW 11.5 mph - N/A   Mostly Cloudy
5:56 PM 87.3 °F 88.6 °F 63.9 °F 46% 29.81 in 10.0 mi West 8.1 mph - N/A   Mostly Cloudy
6:56 PM 85.6 °F 87.1 °F 64.2 °F 49% 29.83 in 10.0 mi West 6.9 mph - N/A   Mostly Cloudy
7:56 PM 79.0 °F - 67.8 °F 69% 29.88 in 10.0 mi North 8.1 mph 19.6 mph N/A   Overcast
8:56 PM 76.8 °F - 67.1 °F 72% 29.90 in 10.0 mi North 6.9 mph - N/A   Mostly Cloudy
9:56 PM 75.0 °F - 68.0 °F 79% 29.92 in 10.0 mi NE 3.5 mph - N/A   Overcast
10:44 PM 75.2 °F - 68.0 °F 78% 29.94 in 10.0 mi ENE 8.1 mph - N/A   Overcast
10:52 PM 75.2 °F - 68.0 °F 78% 29.94 in 10.0 mi ENE 6.9 mph - N/A Rain Light Rain
10:56 PM 74.7 °F - 68.0 °F 80% 29.94 in 10.0 mi NE 5.8 mph - 0.00 in Rain Light Rain
11:04 PM 73.4 °F - 68.0 °F 83% 29.94 in 10.0 mi ENE 6.9 mph - N/A   Overcast
11:28 PM 73.4 °F - 68.0 °F 83% 29.94 in 10.0 mi NE 4.6 mph - N/A   Overcast
11:36 PM 73.4 °F - 68.0 °F 83% 29.94 in 10.0 mi NE 4.6 mph - N/A   Overcast
11:44 PM 71.6 °F - 66.2 °F 83% 29.95 in 10.0 mi NNE 10.4 mph - N/A   Overcast
11:56 PM 71.2 °F - 65.5 °F 82% 29.95 in 10.0 mi NNE 9.2 mph - 0.00 in   Overcast